Location: Newark
(43.0117°N, 7.5572°W)
Time: 11:09:35
(UTC+00:00)

Hubble Space Telescope - Visible Passes

Search period start: 24 September 2020 00:00
Search period end: 04 October 2020 00:00
Orbit: 536 x 540 km, 28.5° (Epoch: 23 September)

Date Brightness Start Highest point End Pass type
(mag) Time Alt. Az. Time Alt. Az. Time Alt. Az.
27 Sep 3.4 05:59:19 10° S 05:59:53 10° S 06:00:26 10° SSE visible
28 Sep 3.3 05:48:10 10° S 05:48:59 10° S 05:49:49 10° SSE visible
29 Sep 3.2 05:37:17 10° SSW 05:38:07 10° S 05:38:57 10° S visible
30 Sep 3.2 05:26:38 10° SSW 05:27:15 10° S 05:27:51 10° S visible
